Location: Gu�tanj
(46.5431°N, 14.9692°E)
Time: 12:20:12
(UTC+00:00)

N. Korean satellite - Visible Passes

Search period start: 24 September 2021 00:00
Search period end: 04 October 2021 00:00
Orbit: 448 x 498 km, 97.3° (Epoch: 23 September)

Date Brightness Start Highest point End Pass type
(mag) Time Alt. Az. Time Alt. Az. Time Alt. Az.
24 Sep 8.0 04:00:02 10° NNE 04:03:26 42° E 04:06:51 10° S visible
25 Sep 9.5 03:32:49 10° NE 03:35:31 20° E 03:38:14 10° SE visible
27 Sep 7.3 04:09:47 10° NNE 04:13:18 57° E 04:16:51 10° S visible
28 Sep 9.0 03:42:20 10° NE 03:45:24 26° E 03:48:29 10° SSE visible
29 Sep 9.9 03:15:39 10° ENE 03:17:24 13° E 03:19:08 10° ESE visible
30 Sep 6.8 04:19:30 10° NNE 04:23:05 77° ESE 04:26:43 10° S visible
01 Oct 8.5 03:51:52 10° NNE 03:55:12 34° E 03:58:32 10° SSE visible
02 Oct 9.7 03:24:46 10° NE 03:27:11 17° E 03:29:36 10° SE visible
03 Oct 6.5 04:29:09 10° N 04:32:46 80° WNW 04:36:25 10° SSW visible
